Location: Newark
(5.8900°S, 42.6378°W)
Time: 21:33:08
(UTC+00:00)

Vanguard 1 Rocket - Pass Details

Date: 18 October 2019
Orbit: 651 x 4226 km, 34.3° (Epoch: 19 November)

Event Time Altitude Azimuth Distance (km) Brightness Sun altitude
Rises 00:19:07 0° 289° (WNW) 7,332 12.4 -52.6°
Reaches altitude 10° 00:25:20 10° 282° (WNW) 5,727 11.7 -54.0°
Enters shadow 00:36:47 35° 241° (WSW) 2,871 10.0 -56.6°
Maximum altitude 00:38:54 37° 220° (SW) 2,560 - -57.1°
Drops below altitude 10° 00:46:26 10° 154° (SSE) 3,181 - -58.7°
Sets 00:48:52 0° 144° (SE) 3,845 - -59.2°
